Location: Newark
(36.7000°N, 45.1333°E)
Time: 15:15:29
(UTC+00:00)

LightSail 2 - Pass Details

Date: 18 January 2020
Orbit: 701 x 721 km, 24.0° (Epoch: 16 February)

Event Time Altitude Azimuth Distance (km) Brightness Sun altitude
Rises 15:26:58 0° 219° (SW) 3,087 9.4 -15.4°
Reaches altitude 10° 15:30:42 10° 193° (SSW) 2,176 8.0 -16.2°
Maximum altitude 15:33:01 13° 165° (SSE) 1,977 7.4 -16.6°
Drops below altitude 10° 15:35:21 10° 138° (SE) 2,184 7.4 -17.1°
Enters shadow 15:35:42 - 135° (SE) 2,247 7.4 -17.1°
